Regional Weather Roundup
Issued by NWS Goodland, KS

Home | Current Version | Previous Version | Text Only | Print | Product List | Glossary Off
Versions: 1 2 3 4 5 6 7 8 9 10 11 12 13 14 15 16 17 18 19 20 21 22 23 24 25 26 27 28 29 30 31 32 33 34 35 36 37 38 39 40 41 42 43 44 45 46 47 48 49 50

000
ASUS43 KGLD 211259
RWRGLD

GOODLAND FORECAST AREA HOURLY WEATHER ROUNDUP
NATIONAL WEATHER SERVICE GOODLAND KS
600 AM MST SUN DEC 21 2014

...OFFICIAL OBSERVATIONS...

CITY           SKY/WX    TMP DP  RH WIND       PRES   REMARKS
GOODLAND KS    CLEAR     28  25  88 SW6       29.79F
HILL CITY KS   CLOUDY    33  30  88 S7        29.84F
IMPERIAL NEB   CLEAR     26  22  84 CALM      29.75F
MCCOOK NEB     MOCLDY    27  25  92 SW6       29.79S
AKRON CO       PTCLDY    25  19  78 SW9       29.75F
BURLINGTON CO  CLEAR     28  23  81 SW7       29.77F
LIMON CO       PTCLDY    16  13  88 N5        29.78F
$$

...UNOFFICIAL OBSERVATIONS...

CITY           SKY/WX    TMP DP  RH WIND       PRES   REMARKS
GOVE KS          N/A     28  32 100 MISG        N/A
KIT CARSON CO    N/A     26  22  86 MISG        N/A
YUMA CO          N/A     23  17  78 W5          N/A
$$



USA.gov is the U.S. government's official web portal to all federal, state and local government web resources and services.